GAOFEN-6

Last updated on Tue Oct 15 2024 00:02:25 GMT+0000 (Coordinated Universal Time)

1 43484U 18048A 24288.57350711 .00002192 00000+0 32074-3 0 9999 2 43484 97.8534 359.7817 0011364 357.3213 2.7934 14.76614208343284
UTC large
Height (km)
Speed (km/s)
/
Latitude / Longitude
Inclination (degrees)
Orbital Period (minutes)
Azimuth
Elevation
Range (km)
Doppler Factor

Next 0 passes for location: London (51.5072 / 0.1276)

Sorry there are no passes over London.